Dewpoint
51 51 50 52 49 51 51 49 48 49 54 54 53 54 54 55 54 54 55 55 54 53 51 45 44 46 31 28 30 33 39 37 33 31 28 23 21 21 21 18 18 18 18 19 19 21 20
52 50 50 51 49 50 51 49 48 50 53 55 54 54 53 56 57 55 55 54 49 49 47 46 41 35 28 23 32 34 34 35 33 30 29 28 24 21 18 18 16 19 16 13 15 16 17
50 51 50 51 50 49 48 48 49 51 52 55 54 51 51 55 54 53 52 52 49 46 47 46 39 33 30 30 36 34 35 35 35 31 27 31 30 20 20 16 20 16 15 17 17 16 16
50 51 50 51 50 49 49 52 55 53 51 54 53 50 55 56 55 53 50 49 47 44 44 43 36 31 28 34 37 33 33 34 35 35 32 34 29 26 19 22 24 21 20 14 18 18 23
50 50 51 51 51 50 54 52 53 53 54 55 54 54 56 56 53 51 50 47 42 41 40 38 29 25 23 32 31 33 34 33 33 34 36 36 33 30 25 26 21 19 13 16 12 23 23
50 50 50 51 50 51 52 50 51 50 52 53 53 52 52 50 48 46 46 43 39 34 32 29 30 22 30 30 30 33 37 36 33 32 30 31 27 19 24 16 -12 1 10 19 20 26 31
49 51 51 50 50 50 51 51 51 50 51 51 51 49 47 46 46 46 42 38 31 32 34 28 29 29 29 31 35 37 39 36 34 29 22 29 18 21 26 26 22 25 26 26 28 30 30
50 51 51 52 51 50 49 49 49 49 49 48 48 49 48 48 45 45 42 38 40 37 31 35 35 34 35 37 33 36 38 33 32 28 31 24 23 27 29 30 29 28 27 26 28 30 31
50 50 51 51 52 51 51 50 49 49 48 47 47 48 47 47 45 41 40 41 44 40 29 30 35 35 36 36 35 36 37 34 32 29 27 22 26 29 29 31 30 29 27 27 29 31 29
50 50 50 51 51 52 51 51 50 49 49 48 47 46 45 44 35 41 36 43 43 38 16 22 30 34 36 37 34 38 40 36 32 30 32 28 29 29 31 31 30 24 30 32 31 30 22
49 50 50 50 50 51 51 51 51 51 50 48 47 48 45 38 34 32 37 44 42 30 -5 18 29 35 36 34 34 36 41 36 31 32 29 25 28 29 29 31 31 27 32 33 32 30 27
50 49 49 49 49 50 50 51 50 50 50 50 48 46 43 40 41 41 45 43 36 10 -0 22 31 31 30 33 35 37 38 39 38 34 33 32 34 32 30 33 32 34 32 30 31 28 20
51 51 51 51 50 50 50 50 49 49 49 49 48 47 42 42 32 44 44 35 12 4 22 19 26 30 30 28 31 33 34 31 28 18 23 29 32 33 33 29 33 32 24 14 14 16 15
51 51 51 51 50 49 49 49 49 48 49 50 47 44 44 42 43 42 35 21 1 23 24 25 29 29 27 27 29 29 31 28 32 30 28 23 10 31 33 30 28 31 26 18 3 11 16
48 51 51 50 50 49 49 49 49 49 49 48 44 41 41 41 43 41 29 13 12 22 26 28 29 25 25 27 27 27 27 27 29 30 18 25 19 32 33 33 32 30 26 29 25 24 21
50 48 49 50 48 48 48 49 49 50 49 44 37 38 40 42 42 34 24 25 28 30 29 29 21 24 22 23 24 22 24 28 29 31 30 29 19 26 32 33 33 32 33 22 23 0 -9
51 50 48 47 50 48 48 48 49 49 48 45 37 34 42 43 40 29 19 25 29 30 31 29 25 24 23 22 22 23 22 26 31 31 31 30 27 19 32 30 28 31 29 30 25 23 13
52 51 50 49 47 49 49 48 48 49 47 42 36 24 40 41 28 31 26 29 31 29 31 31 30 28 25 24 22 22 22 22 31 31 24 31 28 20 19 28 29 31 27 29 19 9 24
53 52 51 50 49 48 48 48 48 49 48 39 30 31 39 35 22 24 30 30 32 29 30 30 28 29 28 25 17 23 23 28 31 30 26 30 24 12 1 20 27 29 30 29 23 22 20
54 53 53 52 50 49 48 47 48 49 48 39 31 15 25 31 31 25 26 26 25 32 31 31 29 29 27 25 26 21 23 27 30 30 33 30 25 14 -5 -4 23 23 25 26 26 22 19
53 53 53 53 52 50 49 47 46 48 47 38 32 26 26 17 25 26 26 26 25 24 31 31 28 28 26 19 21 22 24 24 30 33 33 30 24 24 24 23 23 23 21 22 23 24 18
52 53 53 53 52 51 50 48 46 47 44 36 27 25 29 27 27 24 23 19 23 23 27 25 27 25 27 23 19 13 20 22 21 32 31 31 22 26 24 24 25 23 24 25 23 22 23
52 51 51 53 53 52 51 49 46 46 41 36 37 36 32 26 25 22 18 20 22 24 25 26 27 26 25 26 28 27 26 26 24 23 29 28 28 23 14 22 20 10 14 20 22 24 24
52 51 51 51 52 53 52 51 48 47 42 40 38 36 32 24 27 24 23 24 23 24 23 26 28 26 26 32 31 30 29 29 29 27 28 26 27 24 18 18 -4 5 18 18 18 20 24
52 51 50 50 51 51 52 52 50 47 46 40 40 37 35 28 29 28 28 28 27 25 25 26 27 29 32 30 25 19 10 19 25 27 27 27 25 19 14 18 15 9 14 16 17 6 17
52 51 51 51 51 50 50 52 52 50 46 42 42 42 36 30 30 29 27 26 25 24 23 24 33 35 32 29 25 13 4 5 10 24 27 26 25 19 21 16 6 3 13 20 13 2 6
53 52 51 51 50 49 50 50 51 52 48 43 41 41 37 33 33 32 29 28 26 26 25 26 31 32 32 27 22 18 13 18 10 13 24 25 24 22 20 20 21 23 23 21 8 1 8
53 53 52 51 50 49 48 48 50 51 52 45 42 43 37 34 34 35 34 31 30 28 27 28 28 31 30 25 23 21 22 20 16 16 23 21 23 23 23 22 17 24 22 17 13 12 13
51 51 52 52 51 48 48 48 49 50 51 48 43 43 42 37 35 37 37 36 33 32 31 31 29 31 31 27 27 27 24 24 21 15 24 17 21 21 22 20 22 24 20 21 20 20 21
Wind_Speed
32 31 30 27 23 25 26 28 27 25 22 27 27 23 18 14 13 12 7 24 21 17 12 5 2 1 4 12 7 10 18 17 11 7 14 6 9 3 6 4 3 4 0 2 1 3 4
32 31 32 31 23 21 26 27 25 25 24 21 23 22 26 23 29 22 27 25 20 15 9 6 6 7 7 16 10 13 11 14 16 11 10 10 4 5 7 4 4 2 3 5 2 2 2
31 32 33 32 28 23 27 24 24 23 21 21 23 30 28 29 33 29 26 20 17 14 14 11 8 11 26 8 5 10 11 8 8 7 7 6 2 6 2 5 2 2 2 3 3 1 2
29 31 32 30 30 25 26 26 24 24 21 20 25 26 23 23 23 23 22 17 13 11 12 11 11 9 8 4 5 13 12 7 11 7 6 6 7 9 5 3 4 4 3 2 0 1 1
27 29 29 29 32 29 31 34 35 32 25 21 20 18 18 21 21 19 15 12 12 15 13 5 9 8 4 8 5 9 6 6 7 7 8 5 6 6 4 4 2 7 3 3 6 3 3
27 28 28 27 28 29 29 29 31 30 31 30 24 20 18 17 17 15 12 11 16 8 8 5 6 7 6 3 4 7 5 6 6 5 5 8 6 5 6 3 3 1 3 4 7 3 6
26 28 27 26 25 26 25 26 27 26 26 25 24 23 20 17 15 13 6 4 6 11 18 9 3 8 2 5 3 8 5 3 4 8 4 5 9 8 4 4 3 3 1 7 8 4 14
25 26 25 25 23 24 23 23 24 25 25 25 24 21 18 18 15 6 7 7 2 3 14 9 6 6 2 2 4 16 7 3 5 6 2 4 7 1 1 1 1 1 4 7 10 4 10
23 24 24 24 23 23 22 21 21 21 21 20 18 17 14 6 2 11 13 6 4 2 7 5 4 4 3 5 5 9 6 3 7 9 9 5 3 1 2 2 4 3 3 4 7 12 1
20 22 24 23 23 24 23 22 22 21 19 17 14 14 15 3 5 3 5 7 5 1 6 11 8 4 3 2 5 3 4 3 5 4 3 5 1 1 1 1 1 3 3 5 10 11 5
18 18 20 22 22 22 20 19 17 16 16 15 13 14 13 9 5 3 2 5 2 2 5 7 5 2 4 5 0 6 3 4 4 3 2 1 3 2 2 2 1 3 5 7 3 2 5
15 16 16 17 17 18 18 17 17 17 15 14 13 12 2 5 4 2 5 2 2 3 4 4 4 5 4 4 3 3 3 4 2 3 3 1 2 2 2 3 2 6 4 3 2 2 2
15 15 16 16 15 17 16 16 16 18 18 16 13 9 4 3 2 3 2 2 1 6 2 2 3 4 5 4 3 4 4 6 4 2 4 3 1 1 1 2 1 6 5 5 3 3 3
13 14 16 16 17 17 17 17 17 17 15 14 10 3 4 3 4 4 1 4 8 2 2 2 1 3 3 5 3 4 3 4 3 4 3 5 2 1 3 2 1 3 3 2 4 5 9
12 13 14 16 16 18 20 21 21 20 19 9 1 2 3 7 4 4 4 8 4 5 4 4 2 3 3 2 1 3 1 0 1 2 4 4 3 2 4 1 1 1 0 2 1 2 5
11 12 13 14 15 16 17 20 23 23 19 10 2 2 3 7 5 4 7 4 2 3 2 1 3 3 3 2 1 1 1 2 3 2 3 2 5 2 2 1 0 2 6 1 3 4 7
10 10 11 13 14 15 16 18 21 24 22 6 4 3 4 6 2 10 6 3 2 1 1 2 2 2 3 2 1 1 3 2 5 4 3 4 3 2 1 7 7 4 2 2 1 4 3
8 10 11 12 14 15 16 17 20 21 20 7 3 1 4 4 5 4 4 4 3 4 2 2 1 1 2 1 1 2 2 3 6 6 1 1 2 7 8 2 1 3 5 8 3 4 4
9 8 9 11 12 13 15 18 20 21 17 2 2 1 2 2 2 3 1 2 1 3 2 2 3 3 2 2 1 4 3 1 7 5 4 5 1 7 2 1 1 5 7 8 4 2 10
9 9 8 10 11 13 14 16 18 20 17 3 2 1 4 6 2 4 2 2 2 1 2 2 2 1 1 3 5 3 4 4 7 5 5 6 4 9 11 4 2 7 9 13 16 9 9
6 8 9 8 9 11 14 17 18 20 10 3 6 2 1 1 3 2 1 2 2 2 2 2 2 7 5 3 3 5 5 3 4 4 6 4 7 10 19 25 21 24 24 20 25 25 17
5 6 7 9 8 9 12 15 19 22 6 6 3 2 2 1 1 1 1 4 5 2 5 4 6 2 10 7 7 3 3 3 6 3 7 3 5 3 15 22 16 19 25 28 31 33 34
5 5 6 6 7 8 10 12 15 20 9 5 2 1 2 3 2 0 3 3 4 3 3 5 7 4 8 17 15 15 12 11 9 7 11 5 4 5 9 7 18 19 14 21 14 12 31
6 4 4 5 6 6 7 8 11 13 10 4 2 2 2 2 2 4 2 4 5 5 5 2 4 5 3 2 5 8 9 14 14 17 11 6 6 3 11 13 6 3 5 8 19 14 28
6 6 5 4 5 6 7 6 6 7 7 3 3 2 2 4 4 10 10 8 6 4 6 7 7 4 2 3 5 8 3 2 2 2 14 12 10 4 6 7 18 9 1 3 6 11 20
9 6 5 5 5 6 7 6 4 2 2 2 0 2 2 2 3 5 3 3 4 3 3 3 1 0 3 2 1 3 4 3 3 1 9 8 9 13 3 4 8 4 1 1 1 12 2
11 9 7 6 6 5 6 6 6 4 3 1 2 3 2 3 4 4 5 3 3 1 3 3 1 1 1 4 4 7 6 3 5 4 6 8 6 24 18 8 16 18 14 7 3 4 2
11 10 9 8 8 8 9 9 7 5 4 4 2 5 4 5 10 8 6 6 2 3 3 1 2 2 3 6 5 6 7 5 4 5 8 14 15 11 10 9 14 12 6 9 5 4 5
8 9 9 8 8 9 10 10 9 6 5 9 4 1 3 5 8 4 9 16 13 11 5 5 3 2 7 4 5 3 5 4 5 7 3 8 13 10 22 16 7 13 14 20 5 15 21
Wind_Direction
35 34 35 35 41 49 56 53 48 50 50 106 96 98 105 98 106 127 144 116 114 112 117 121 29 114 78 60 44 309 332 353 14 38 50 50 56 66 96 80 70 84 45 37 23 293 297
38 35 37 38 46 48 53 53 51 52 55 83 89 86 82 68 121 155 122 111 106 88 90 120 111 86 68 80 276 322 337 11 29 54 46 46 80 74 92 73 71 56 328 307 333 316 293
37 37 40 44 46 51 51 52 54 59 62 69 81 93 79 79 100 104 103 102 99 81 77 77 74 87 63 70 320 335 11 15 24 51 74 43 38 71 85 89 55 55 358 356 360 316 290
39 38 42 49 53 58 48 46 49 70 66 69 89 99 74 66 78 89 93 99 93 74 63 63 59 71 79 312 319 16 357 7 20 42 73 40 65 89 52 110 36 40 46 326 352 295 305
41 41 44 53 58 57 55 61 54 57 57 75 88 76 61 50 58 70 80 76 65 58 55 43 37 79 67 329 21 344 16 7 356 27 35 57 55 67 33 88 58 22 265 292 322 13 296
43 46 45 50 57 51 54 57 51 52 58 67 69 68 56 49 44 38 40 71 56 46 10 50 68 67 20 3 332 343 346 11 30 11 35 39 49 82 39 64 246 304 337 305 272 302 306
41 47 48 52 52 56 47 45 48 50 53 50 50 47 41 30 32 26 11 4 34 27 38 66 45 83 38 323 351 5 357 15 32 50 73 21 93 86 61 44 107 108 310 294 273 279 326
32 44 47 49 47 47 49 44 47 45 41 41 39 37 36 35 41 52 53 68 66 146 71 39 59 68 44 353 54 9 8 79 57 82 1 61 90 152 295 18 32 1 320 306 289 244 322
29 35 42 44 43 45 44 43 39 42 45 40 34 27 20 17 170 46 76 68 330 12 82 22 31 39 350 33 51 357 17 55 68 59 49 103 126 141 58 11 355 283 264 310 291 318 335
37 27 28 39 40 37 37 31 27 27 29 26 29 27 12 144 47 2 44 333 353 2 89 358 355 22 11 53 48 344 17 70 49 107 78 80 147 84 49 260 276 310 203 310 318 351 317
27 35 27 24 27 31 35 31 26 22 16 14 12 18 37 61 117 42 303 325 8 68 85 326 336 325 349 66 236 17 355 42 87 95 73 146 170 204 235 232 261 282 329 317 321 334 338
31 23 27 26 22 26 22 23 17 14 10 1 0 6 63 41 52 248 305 321 94 33 73 5 324 4 35 35 34 328 47 56 102 92 38 134 233 212 253 295 279 328 348 49 69 24 313
31 26 18 16 24 17 19 22 16 8 360 354 351 354 35 115 316 296 268 124 43 71 313 11 23 20 5 3 28 21 29 33 36 10 10 333 239 263 225 330 36 17 14 332 324 343 249
33 28 24 19 14 16 17 14 13 8 358 341 334 66 34 54 324 333 60 61 65 170 209 270 336 1 36 9 30 28 30 17 51 53 75 11 346 202 166 207 299 35 65 76 301 311 296
30 27 26 23 18 14 10 9 6 1 357 3 28 8 57 350 340 30 54 56 134 191 168 141 58 46 4 11 1 17 354 349 18 32 42 5 282 276 223 178 146 114 51 160 182 229 288
34 28 22 23 21 14 12 8 3 357 357 15 50 32 42 326 344 49 72 93 118 210 132 109 156 181 179 243 202 35 170 183 162 146 134 175 301 272 319 171 184 206 152 274 34 324 303
12 27 26 20 17 16 11 7 4 360 354 12 51 37 342 342 23 50 79 116 172 203 117 165 211 189 241 261 269 251 202 203 191 170 143 146 163 265 172 205 192 155 234 164 119 175 254
16 9 15 24 14 9 8 7 4 3 358 44 89 71 333 357 41 40 85 146 157 175 153 172 160 208 223 270 286 265 248 247 180 160 206 183 164 269 236 170 265 212 218 174 200 234 234
10 9 6 8 12 11 7 2 3 2 9 13 76 323 352 87 63 89 131 128 173 147 225 201 230 213 172 203 267 218 248 307 168 172 182 174 246 303 305 23 113 226 208 197 147 143 225
358 2 5 0 360 3 8 7 1 359 1 79 55 55 1 56 88 114 132 160 170 214 195 208 253 236 218 257 231 251 238 216 198 201 158 160 199 222 248 253 170 230 221 209 202 212 227
4 356 1 3 357 2 2 3 6 1 16 60 32 49 33 30 43 74 88 161 179 235 213 224 255 219 200 253 236 234 239 254 213 202 163 189 248 232 253 266 262 259 253 233 220 222 230
347 5 360 359 6 5 5 4 6 3 51 76 43 28 26 150 287 154 203 204 200 224 187 220 219 234 217 228 223 258 220 221 244 174 183 197 272 291 282 264 262 266 252 237 236 239 249
323 344 353 5 4 7 10 8 11 13 44 69 45 57 94 4 2 144 232 183 206 191 223 218 212 215 232 247 248 256 245 245 247 203 197 194 235 342 283 324 313 285 255 206 209 222 223
291 307 335 354 5 15 14 12 17 29 54 105 75 67 24 285 232 227 213 208 234 233 260 224 184 212 256 202 277 261 253 253 243 231 203 197 180 226 287 334 271 302 224 209 218 232 216
257 280 301 316 350 360 12 12 12 25 36 77 136 91 82 297 257 286 256 249 269 271 246 248 243 223 169 21 308 320 313 276 248 212 228 207 189 265 269 295 295 298 90 116 191 298 231
251 254 279 304 320 339 345 352 345 350 17 63 142 143 141 298 237 248 307 279 274 259 303 261 321 99 93 119 129 273 277 293 290 194 33 159 196 193 179 254 264 271 41 63 214 294 270
244 248 255 272 293 315 323 339 335 303 226 170 260 181 140 246 271 188 235 261 160 190 281 288 279 227 355 161 208 228 249 219 246 222 173 137 183 218 232 261 275 260 249 335 271 260 292
246 252 259 269 279 302 313 314 314 319 256 191 267 200 194 229 265 214 213 219 203 206 234 205 303 203 151 197 209 227 225 240 257 199 182 185 176 192 191 221 275 201 112 191 242 308 310
268 272 271 278 299 309 309 305 300 305 290 184 257 236 175 222 263 234 230 243 233 232 229 226 254 174 212 203 228 228 245 244 247 260 201 241 203 205 192 216 235 195 211 233 272 296 291